• In Belgium
  • List of Countries
  • For 7 days
  • Water Temperature
  • Satellite Maps
  • Weather Map
  • Weather Widgets
  • user-avatar
    Login

    Hourly Weather Armawir

    Today, 21 November, Tuesday

    Time Temperature Precipitation Wind Pressure Humidity
    00:00 +9°C° 0 mm 2 mps 684 mmHg 64%
    01:00 +9°C° 0 mm 2 mps 683 mmHg 65%
    02:00 +9°C° 0 mm 2 mps 683 mmHg 65%
    03:00 +9°C° 0 mm 2 mps 682 mmHg 67%
    04:00 +9°C° 0.1 mm 2 mps 682 mmHg 67%
    05:00 +9°C° 0.1 mm 2 mps 682 mmHg 67%
    06:00 +9°C° 0.1 mm 2 mps 682 mmHg 67%
    07:00 +10°C° 0.2 mm 2 mps 682 mmHg 66%
    08:00 +10°C° 0.2 mm 3 mps 682 mmHg 64%
    09:00 +11°C° 0 mm 3 mps 681 mmHg 61%
    10:00 +12°C° 0.2 mm 3 mps 681 mmHg 58%
    11:00 +13°C° 0.2 mm 3 mps 681 mmHg 56%
    12:00 +14°C° 0.2 mm 4 mps 681 mmHg 53%
    13:00 +14°C° 0 mm 4 mps 680 mmHg 53%
    14:00 +14°C° 0 mm 4 mps 680 mmHg 53%
    15:00 +14°C° 0 mm 4 mps 680 mmHg 53%
    16:00 +13°C° 0 mm 4 mps 679 mmHg 59%
    17:00 +12°C° 0 mm 3 mps 679 mmHg 65%
    18:00 +11°C° 0 mm 3 mps 679 mmHg 71%
    19:00 +10°C° 0 mm 3 mps 678 mmHg 72%
    20:00 +10°C° 0 mm 3 mps 678 mmHg 73%
    21:00 +10°C° 0 mm 3 mps 678 mmHg 74%
    22:00 +10°C° 0.1 mm 3 mps 678 mmHg 74%
    23:00 +10°C° 0.1 mm 3 mps 678 mmHg 75%

    Tomorrow, 22 November, Wednesday

    Time Temperature Precipitation Wind Pressure Humidity
    00:00 +10°C° 0.1 mm 3 mps 678 mmHg 75%
    01:00 +10°C° 0.6 mm 2 mps 678 mmHg 76%
    02:00 +9°C° 0.6 mm 2 mps 678 mmHg 76%
    03:00 +9°C° 0.6 mm 2 mps 678 mmHg 77%
    04:00 +9°C° 1.4 mm 2 mps 678 mmHg 78%
    05:00 +8°C° 1.4 mm 3 mps 678 mmHg 80%
    06:00 +6°C° 1.4 mm 4 mps 678 mmHg 81%
    07:00 +7°C° 1.1 mm 3 mps 678 mmHg 81%
    08:00 +7°C° 1.1 mm 2 mps 678 mmHg 80%
    09:00 +7°C° 1.1 mm 2 mps 678 mmHg 79%
    10:00 +7°C° 1 mm 2 mps 678 mmHg 78%
    11:00 +7°C° 1 mm 2 mps 678 mmHg 77%
    12:00 +7°C° 1 mm 3 mps 678 mmHg 77%
    13:00 +7°C° 0.4 mm 2 mps 679 mmHg 75%
    14:00 +7°C° 0.4 mm 2 mps 679 mmHg 73%
    15:00 +7°C° 0.4 mm 2 mps 679 mmHg 71%
    16:00 +6°C° 0.2 mm 2 mps 680 mmHg 72%
    17:00 +6°C° 0.2 mm 2 mps 680 mmHg 73%
    18:00 +5°C° 0.2 mm 2 mps 681 mmHg 74%
    19:00 +4°C° 0.3 mm 2 mps 681 mmHg 75%
    20:00 +3°C° 0.3 mm 3 mps 681 mmHg 75%
    21:00 +2°C° 0.3 mm 3 mps 682 mmHg 75%
    22:00 +3°C° 0.1 mm 2 mps 682 mmHg 75%
    23:00 +3°C° 0.1 mm 2 mps 682 mmHg 75%

    Day after tomorrow, 23 November, Thursday

    Time Temperature Precipitation Wind Pressure Humidity
    00:00 +2°C° 0.1 mm 2 mps 682 mmHg 74%
    01:00 +1°C° 0 mm 2 mps 683 mmHg 74%
    02:00 +1°C° 0 mm 2 mps 683 mmHg 73%
    03:00 -1°C° 0 mm 2 mps 683 mmHg 73%
    04:00 -1°C° 0 mm 2 mps 683 mmHg 72%
    05:00 0°C° 0 mm 1 mps 683 mmHg 72%
    06:00 0°C° 0 mm 1 mps 683 mmHg 71%
    07:00 -2°C° 0.1 mm 2 mps 684 mmHg 69%
    08:00 -1°C° 0.1 mm 2 mps 684 mmHg 68%
    09:00 +1°C° 0.1 mm 2 mps 684 mmHg 66%
    10:00 +2°C° 0.1 mm 2 mps 684 mmHg 63%
    11:00 +2°C° 0.1 mm 3 mps 684 mmHg 60%
    12:00 +2°C° 0.1 mm 3 mps 683 mmHg 58%
    13:00 +3°C° 0.1 mm 3 mps 683 mmHg 58%
    14:00 +3°C° 0.1 mm 3 mps 683 mmHg 57%
    15:00 +3°C° 0.1 mm 3 mps 683 mmHg 57%
    16:00 +3°C° 0.1 mm 2 mps 684 mmHg 60%
    17:00 +2°C° 0.1 mm 2 mps 684 mmHg 63%
    18:00 +2°C° 0.1 mm 2 mps 684 mmHg 66%
    19:00 +2°C° 0.1 mm 1 mps 685 mmHg 68%
    20:00 +2°C° 0.1 mm 1 mps 685 mmHg 69%
    21:00 +2°C° 0.1 mm 1 mps 685 mmHg 70%
    22:00 +2°C° 0.2 mm 1 mps 685 mmHg 71%
    23:00 +2°C° 0.2 mm 1 mps 685 mmHg 71%

    24 November, Friday

    Time Temperature Precipitation Wind Pressure Humidity
    00:00 +2°C° 0.2 mm 1 mps 686 mmHg 72%
    01:00 +1°C° 0.2 mm 1 mps 686 mmHg 73%
    02:00 +1°C° 0.2 mm 1 mps 686 mmHg 74%
    03:00 +1°C° 0.2 mm 1 mps 686 mmHg 75%
    04:00 0°C° 0.2 mm 1 mps 686 mmHg 75%
    05:00 0°C° 0.2 mm 1 mps 686 mmHg 75%
    06:00 0°C° 0.2 mm 1 mps 686 mmHg 75%
    07:00 0°C° 0.1 mm 1 mps 686 mmHg 72%
    08:00 0°C° 0.1 mm 1 mps 687 mmHg 70%
    09:00 +1°C° 0.1 mm 1 mps 687 mmHg 68%
    10:00 +1°C° 0.1 mm 1 mps 687 mmHg 66%
    11:00 +2°C° 0.1 mm 1 mps 687 mmHg 64%
    12:00 +2°C° 0.1 mm 2 mps 686 mmHg 62%
    13:00 +3°C° 0 mm 1 mps 686 mmHg 61%
    14:00 +3°C° 0 mm 1 mps 686 mmHg 61%
    15:00 +3°C° 0 mm 1 mps 686 mmHg 60%
    16:00 +2°C° 0 mm 1 mps 686 mmHg 62%
    17:00 +1°C° 0 mm 1 mps 687 mmHg 63%
    18:00 0°C° 0 mm 1 mps 687 mmHg 65%
    19:00 -1°C° 0 mm 1 mps 688 mmHg 64%
    20:00 -1°C° 0 mm 1 mps 688 mmHg 64%
    21:00 -1°C° 0 mm 1 mps 688 mmHg 64%
    22:00 -1°C° 0.1 mm 1 mps 689 mmHg 64%
    23:00 -2°C° 0.1 mm 1 mps 689 mmHg 64%

    25 November, Saturday

    Time Temperature Precipitation Wind Pressure Humidity
    00:00 -2°C° 0.1 mm 1 mps 689 mmHg 64%
    01:00 -2°C° 0.1 mm 1 mps 689 mmHg 64%
    02:00 -3°C° 0.1 mm 1 mps 690 mmHg 64%
    03:00 -5°C° 0.1 mm 2 mps 690 mmHg 65%
    04:00 -5°C° 0 mm 2 mps 690 mmHg 65%
    05:00 -5°C° 0 mm 2 mps 691 mmHg 66%
    06:00 -5°C° 0 mm 2 mps 691 mmHg 66%
    07:00 -5°C° 0.1 mm 2 mps 692 mmHg 65%
    08:00 -4°C° 0.1 mm 2 mps 693 mmHg 64%
    09:00 -3°C° 0.1 mm 2 mps 693 mmHg 63%
    10:00 -3°C° 0 mm 2 mps 693 mmHg 61%
    11:00 -2°C° 0 mm 2 mps 693 mmHg 59%
    12:00 -1°C° 0 mm 2 mps 693 mmHg 57%
    13:00 -1°C° 0 mm 2 mps 693 mmHg 57%
    14:00 -1°C° 0 mm 2 mps 693 mmHg 57%
    15:00 -1°C° 0 mm 2 mps 693 mmHg 56%
    16:00 -2°C° 0 mm 2 mps 694 mmHg 58%
    17:00 -3°C° 0 mm 2 mps 694 mmHg 60%
    18:00 -5°C° 0 mm 2 mps 695 mmHg 62%
    19:00 -5°C° 0 mm 2 mps 695 mmHg 62%
    20:00 -5°C° 0 mm 2 mps 696 mmHg 61%
    21:00 -5°C° 0 mm 2 mps 696 mmHg 60%
    22:00 -6°C° 0 mm 2 mps 696 mmHg 60%
    23:00 -6°C° 0 mm 2 mps 696 mmHg 59%

    26 November, Sunday

    Time Temperature Precipitation Wind Pressure Humidity
    00:00 -6°C° 0 mm 2 mps 696 mmHg 58%
    01:00 -6°C° 0 mm 2 mps 696 mmHg 57%
    02:00 -6°C° 0 mm 2 mps 696 mmHg 56%
    03:00 -6°C° 0 mm 2 mps 695 mmHg 56%
    04:00 -6°C° 0 mm 2 mps 695 mmHg 55%
    05:00 -6°C° 0 mm 2 mps 695 mmHg 55%
    06:00 -4°C° 0 mm 1 mps 695 mmHg 54%
    07:00 -3°C° 0 mm 1 mps 695 mmHg 53%
    08:00 -2°C° 0 mm 1 mps 695 mmHg 52%
    09:00 -1°C° 0 mm 1 mps 695 mmHg 50%
    10:00 0°C° 0 mm 1 mps 694 mmHg 48%
    11:00 +2°C° 0 mm 1 mps 694 mmHg 47%
    12:00 +3°C° 0 mm 1 mps 693 mmHg 45%
    13:00 +3°C° 0 mm 1 mps 693 mmHg 46%
    14:00 +3°C° 0 mm 1 mps 692 mmHg 46%
    15:00 +3°C° 0 mm 1 mps 692 mmHg 47%
    16:00 +2°C° 0 mm 1 mps 692 mmHg 48%
    17:00 +1°C° 0 mm 1 mps 692 mmHg 49%
    18:00 -3°C° 0 mm 2 mps 693 mmHg 49%
    19:00 -3°C° 0 mm 2 mps 693 mmHg 49%
    20:00 -3°C° 0 mm 2 mps 693 mmHg 48%
    21:00 -3°C° 0 mm 2 mps 693 mmHg 48%
    22:00 -3°C° 0 mm 2 mps 693 mmHg 47%
    23:00 -3°C° 0 mm 2 mps 693 mmHg 47%
    Show more